CW4525 Weather Reports


Display with metric or nautical units.
time (UTC)temp
F
wind
direction
speed
MPH
gust
MPH
rain 1hr
in
rain 24hr
in
rain mn
in
humidity
%
barometer
mb
20260902201546 70 195 4.0 11.0 0.00 0.02 0.00 77 1016.8
20260902200044 69 140 3.0 9.0 0.00 0.02 0.00 78 1017.2
20260902194554 69 171 4.0 11.0 0.00 0.02 0.00 78 1017.3
20260902193045 69 102 4.0 10.0 0.00 0.02 0.00 79 1017.4
20260902191552 70 148 3.0 9.0 0.00 0.02 0.00 78 1017.4
20260902190040 69 124 5.0 10.0 0.00 0.02 0.00 80 1017.8
20260902184537 69 153 1.0 5.0 0.00 0.02 0.00 82 1017.8
20260902183048 68 115 3.0 10.0 0.00 0.02 0.00 82 1017.5
20260902181537 68 91 1.0 7.0 0.00 0.02 0.00 82 1017.5
20260902180036 69 140 3.0 7.0 0.00 0.02 0.00 80 1017.8
20260902174535 69 139 3.0 8.0 0.00 0.02 0.00 79 1017.8
20260902173050 69 147 0.0 13.0 0.00 0.02 0.00 81 1017.8
20260902171535 69 164 3.0 11.0 0.00 0.02 0.00 80 1017.5
20260902170033 69 131 3.0 8.0 0.00 0.03 0.00 80 1017.8
20260902164529 68 114 2.0 5.0 0.00 0.03 0.00 83 1017.9
20260902163028 68 157 2.0 9.0 0.00 0.03 0.00 82 1018.2
20260902161530 67 105 3.0 8.0 0.00 0.03 0.00 84 1018.2
20260902160025 67 136 3.0 9.0 0.00 0.03 0.00 84 1018.4
20260902154543 67 139 3.0 8.0 0.00 0.03 0.00 86 1018.8
20260902153020 66 190 3.0 8.0 0.00 0.03 0.00 87 1018.9
20260902151524 66 122 1.0 9.0 0.00 0.03 0.00 88 1018.8
20260902150018 66 74 1.0 5.0 0.00 0.04 0.00 89 1018.8
20260902144514 65 155 1.0 8.0 0.00 0.04 0.00 90 1019.0
20260902143011 65 114 3.0 8.0 0.00 0.04 0.00 92 1018.9
20260902141508 64 148 1.0 8.0 0.00 0.04 0.00 93 1018.6
20260902140009 64 129 3.0 7.0 0.00 0.11 0.00 93 1018.5
20260902134505 63 111 2.0 8.0 0.00 0.11 0.00 94 1018.0
20260902133011 63 130 3.0 7.0 0.00 0.11 0.00 95 1018.0
20260902131612 62 138 0.0 7.0 0.00 0.11 0.00 95 1018.0
20260902124553 61 102 0.0 2.0 0.00 0.31 0.00 96 1018.3
20260902123052 61 102 0.0 6.0 0.00 0.31 0.00 96 1018.2
20260902121551 61 5 0.0 0.0 0.00 0.31 0.00 96 1018.2
20260902120049 60 5 0.0 0.0 0.00 0.31 0.00 96 1018.0
20260902114601 60 5 0.0 0.0 0.00 0.41 0.00 96 1018.4
20260902113040 59 5 0.0 0.0 0.00 0.41 0.00 96 1018.5
20260902111542 59 5 0.0 0.0 0.00 0.41 0.00 96 1018.5
20260902110044 59 5 0.0 0.0 0.00 0.41 0.00 95 1018.1
20260902104540 59 5 0.0 0.0 0.00 0.41 0.00 95 1018.0
20260902103037 60 5 0.0 0.0 0.00 0.41 0.00 95 1017.6
20260902101536 60 5 0.0 0.0 0.00 0.41 0.00 96 1017.4
20260902100033 60 5 0.0 0.0 0.00 0.41 0.00 95 1017.4
20260902094531 60 5 0.0 0.0 0.00 0.41 0.00 96 1017.4
20260902093037 60 5 0.0 0.0 0.00 0.41 0.00 95 1017.2
20260902091530 60 5 0.0 0.0 0.00 0.41 0.00 95 1017.1
20260902090029 60 360 0.0 0.0 0.00 0.41 0.00 95 1017.0
20260902084530 60 360 0.0 0.0 0.00 0.41 0.00 95 1017.0
20260902083035 60 360 0.0 0.0 0.00 0.41 0.00 95 1016.9
20260902081539 60 53 0.0 0.0 0.00 0.41 0.00 95 1016.9
20260902080039 60 115 0.0 0.0 0.00 0.41 0.00 95 1017.0
20260902074526 60 115 0.0 0.0 0.00 0.41 0.00 95 1017.2
20260902073030 60 115 0.0 0.0 0.00 0.41 0.00 95 1017.3
20260902071525 60 115 0.0 0.0 0.00 0.41 0.00 95 1017.3
20260902070025 60 115 0.0 0.0 0.00 0.41 0.00 95 1017.1
20260902064523 60 115 0.0 0.0 0.00 0.41 0.00 95 1017.0
20260902063022 60 115 0.0 0.0 0.00 0.41 0.00 95 1016.9
20260902061521 60 115 0.0 0.0 0.00 0.41 0.00 95 1016.9
20260902060021 60 115 0.0 0.0 0.00 0.41 0.00 95 1016.8
20260902054529 60 115 0.0 0.0 0.00 0.41 0.00 95 1016.8
20260902053019 60 115 0.0 0.0 0.00 0.41 0.00 95 1016.8
20260902051523 60 115 0.0 0.0 0.00 0.41 0.00 95 1016.7
20260902050018 60 115 0.0 0.0 0.00 0.41 0.00 95 1016.4
20260902044517 60 115 0.0 0.0 0.00 0.41 0.00 95 1016.2
20260902043016 60 115 0.0 0.0 0.00 0.41 0.00 95 1015.8
20260902041515 60 115 0.0 0.0 0.00 0.41 0.00 95 1015.7
20260902040016 60 115 0.0 0.0 0.00 0.41 0.41 95 1015.7
20260902034514 60 115 0.0 0.0 0.00 0.41 0.41 95 1015.4
20260902033013 60 115 0.0 0.0 0.00 0.41 0.41 95 1015.2
20260902031513 60 115 0.0 0.0 0.00 0.41 0.41 95 1015.2
20260902030017 60 115 0.0 0.0 0.00 0.41 0.41 95 1015.3
20260902024512 60 115 0.0 0.0 0.00 0.41 0.41 95 1015.5
20260902023032 60 115 0.0 0.0 0.00 0.41 0.41 95 1015.3
20260902021525 60 115 0.0 0.0 0.01 0.41 0.41 95 1015.3
20260902020010 60 115 0.0 0.0 0.01 0.41 0.41 95 1015.6
20260902014510 60 115 0.0 0.0 0.01 0.41 0.41 95 1015.6
20260902013008 60 115 0.0 0.0 0.01 0.41 0.41 94 1015.2
20260902011512 60 115 0.0 0.0 0.00 0.40 0.40 94 1015.2
20260902010007 60 115 0.0 0.0 0.00 0.40 0.40 94 1015.2
20260902004507 60 115 0.0 0.0 0.00 0.40 0.40 94 1015.2
20260902003006 60 115 0.0 0.0 0.00 0.40 0.40 94 1015.1
20260902001506 60 115 0.0 0.0 0.00 0.40 0.40 94 1015.0
20260902000008 60 140 0.0 5.0 0.00 0.40 0.40 94 1014.7
20260901234504 60 130 0.0 0.0 0.00 0.40 0.40 94 1014.6
20260901233004 61 136 1.0 6.0 0.00 0.40 0.40 93 1014.6
20260901231502 61 123 1.0 6.0 0.01 0.40 0.40 93 1015.0
20260901230002 62 148 2.0 8.0 0.01 0.40 0.40 93 1014.7
20260901224503 62 126 3.0 7.0 0.01 0.40 0.40 94 1014.6
20260901223115 63 113 1.0 5.0 0.01 0.40 0.40 94 1014.5
20260901221607 63 147 2.0 10.0 0.00 0.39 0.39 93 1014.4
20260901221502 63 123 4.0 13.0 0.00 0.39 0.39 93 1014.4
20260901220130 64 134 0.0 8.0 0.00 0.39 0.39 94 1014.3
20260901214559 64 92 0.0 4.0 0.00 0.39 0.39 94 1014.1
20260901213117 64 99 0.0 4.0 0.00 0.39 0.39 94 1014.0
20260901211602 64 94 0.0 4.0 0.00 0.39 0.39 94 1014.0
20260901204608 64 123 1.0 7.0 0.00 0.39 0.39 94 1013.8
20260901203108 64 113 0.0 0.0 0.00 0.39 0.39 94 1013.7